Location: Laterina
(43.5167°N, 11.7167°E)
Time: 03:50:39
(UTC+00:00)

Cosmos 1707 - Pass Details

Date: 18 January 2021
Orbit: 516 x 528 km, 82.5° (Epoch: 03 March)

Event Time Altitude Azimuth Distance (km) Brightness Sun altitude
Rises 16:39:11 0° 225° (SW) 2,635 7.8 -6.2°
Reaches altitude 10° 16:41:54 10° 245° (WSW) 1,750 7.2 -6.7°
Maximum altitude 16:44:31 17° 289° (WNW) 1,348 5.6 -7.1°
Drops below altitude 10° 16:47:09 10° 332° (NNW) 1,756 5.5 -7.6°
Sets 16:49:52 0° 352° (N) 2,648 6.2 -8.0°
